Regional Weather Roundup
Issued by NWS

Home | Current Version | Previous Version | Graphics & Text | Print | Product List | Glossary On
Versions: 1 2 3 4 5 6 7 8 9 10 11 12 13 14 15 16 17 18 19 20 21 22 23 24 25 26 27
000
ASUS45 KCYS 191710
RWRWY

WYOMING REGIONAL WEATHER ROUNDUP
NATIONAL WEATHER SERVICE CHEYENNE WY
1100 AM MDT WED JUL 19 2017

NOTE:  "FAIR" INDICATES FEW OR NO CLOUDS BELOW 12,000 FEET
WITH NO SIGNIFICANT WEATHER AND/OR OBSTRUCTIONS TO VISIBILITY.

WYZ001-191800-
YELLOWSTONE NATIONAL PARK

CITY           SKY/WX    TMP DP  RH WIND       PRES   REMARKS
LK YELLOWSTONE   N/A     67  42  40 VRB3      30.37F
W YELLOWSTONE  NOT AVBL

$$
WYZ002>013-054>058-071-098>099-191800-
NORTHERN WYOMING

CITY           SKY/WX    TMP DP  RH WIND       PRES   REMARKS
JACKSON        SUNNY     72  45  37 CALM      30.27F
CODY           FAIR      74  46  36 NE13      30.18S
GREYBULL       FAIR      86  43  22 NW16      30.06R
WORLAND        FAIR      85  47  26 N8        30.09S
SHERIDAN       FAIR      81  51  35 N10G21    30.11S
BUFFALO        FAIR      75  48  38 N24G36    30.14R
GILLETTE       FAIR      84  48  28 NW15      30.08S
HULETT         FAIR      84  54  34 NW10G17   30.09R
NEWCASTLE      FAIR      86  52  30 CALM      30.05S

$$
WYZ014>020-022>026-101>103-191800-
CENTRAL WYOMING

CITY           SKY/WX    TMP DP  RH WIND       PRES   REMARKS
BIG PINEY      FAIR      74  46  36 VRB3      30.31F
PINEDALE       FAIR      79  41  25 S3        30.32S
DUBOIS         FAIR      79  28  15 NW12G21   30.28S
LANDER         FAIR      74  46  36 SE5       30.18R
RIVERTON       FAIR      76  48  37 E5        30.17R
CASPER         FAIR      86  41  20 SW9G20    30.15F
DOUGLAS        FAIR      91  49  23 NW12      30.12R

$$
WYZ021-027>030-104>119-191800-
SOUTHERN WYOMING

CITY           SKY/WX    TMP DP  RH WIND       PRES   REMARKS
EVANSTON       CLOUDY    72  55  55 S8        30.31S
KEMMERER         N/A     77  45  31 SW6       30.33S
FORT BRIDGER   FAIR      78  51  40 NW8       30.34R
ROCK SPRINGS   FAIR      81  37  20 CALM      30.29S
RAWLINS        FAIR      85  44  23 SW17G24   30.29F
SARATOGA       FAIR      84  43  23 SW3       30.33S
LARAMIE        FAIR      86  37  17 W9G17     30.31F
CHEYENNE       FAIR      91  45  20 VRB6      30.21F
TORRINGTON     FAIR      89  58  34 S9        30.05S
PINE BLUFFS    FAIR      86  54  32 SW8       30.15F

$$




USA.gov is the U.S. government's official web portal to all federal, state and local government web resources and services.